EW6103 Weather Reports


time (UTC)temp
F
wind
direction
speed
knots
gust
knots
rain 1hr
in
rain 24hr
in
rain mn
in
humidity
%
barometer
mb
20260906011008 57 135 0.9 3.5 0.00 0.08 0.00 80 1022.8
20260906010016 57 135 1.7 3.5 0.00 0.08 0.00 79 1022.8
20260906005009 57 135 3.5 5.2 0.00 0.08 0.00 78 1022.7
20260906004008 57 135 3.5 5.2 0.00 0.08 0.00 77 1022.6
20260906003010 57 135 2.6 4.3 0.00 0.08 0.00 78 1022.5
20260906001011 55 270 2.6 3.5 0.00 0.08 0.00 82 1022.6
20260905235012 58 135 2.6 3.5 0.00 0.08 0.00 76 1022.3
20260905233012 60 135 2.6 4.3 0.00 0.08 0.00 73 1022.2
20260905231006 58 135 3.5 5.2 0.00 0.08 0.00 78 1022.3
20260905225008 59 270 0.9 2.6 0.00 0.08 0.00 75 1022.0
20260905224008 59 180 1.7 3.5 0.00 0.08 0.00 73 1021.9
20260905223009 60 0 1.7 2.6 0.00 0.08 0.00 71 1021.9
20260905222010 60 270 1.7 3.5 0.00 0.08 0.00 71 1022.0
20260905221009 61 225 1.7 3.5 0.00 0.08 0.00 70 1021.9
20260905215008 62 135 1.7 3.5 0.00 0.08 0.08 68 1021.5
20260905214008 62 135 2.6 4.3 0.00 0.08 0.08 67 1021.4
20260905212007 62 135 1.7 3.5 0.00 0.08 0.08 65 1021.3
20260905211007 62 270 2.6 4.3 0.00 0.08 0.08 63 1021.0
20260905210011 62 135 3.5 7.8 0.00 0.08 0.08 62 1021.1
20260905205009 62 135 3.5 7.8 0.00 0.08 0.08 63 1021.0
20260905204006 62 135 3.5 6.1 0.00 0.08 0.08 61 1020.6
20260905203007 62 135 3.5 6.1 0.00 0.08 0.08 61 1020.5
20260905202005 62 135 2.6 5.2 0.00 0.08 0.08 64 1020.5
20260905201006 61 135 2.6 3.5 0.00 0.08 0.08 65 1020.4
20260905200015 61 135 2.6 3.5 0.00 0.08 0.08 64 1020.3
20260905195009 61 135 2.6 3.5 0.00 0.08 0.08 66 1020.2
20260905194008 61 270 1.7 3.5 0.00 0.08 0.08 64 1020.1
20260905193010 61 270 0.9 1.7 0.00 0.08 0.08 65 1019.9
20260905192005 62 135 0.9 1.7 0.00 0.08 0.08 62 1019.8
20260905191006 62 0 0.9 2.6 0.00 0.08 0.08 60 1019.8
20260905190014 62 135 1.7 3.5 0.00 0.08 0.08 61 1019.7
20260905185007 62 135 2.6 3.5 0.00 0.08 0.08 60 1019.6
20260905184005 63 135 2.6 3.5 0.00 0.08 0.08 58 1019.4
20260905181008 65 135 5.2 8.7 0.00 0.08 0.08 52 1018.8
20260905180010 65 135 4.3 7.8 0.00 0.08 0.08 53 1018.6
20260905174008 66 135 5.2 9.6 0.00 0.08 0.08 53 1018.4
20260905171007 68 135 3.5 7.0 0.00 0.08 0.08 49 1018.0
20260905170014 68 135 3.5 5.2 0.00 0.08 0.08 50 1017.7
20260905164007 69 135 4.3 7.8 0.00 0.08 0.08 49 1017.6
20260905163009 69 135 6.1 11.3 0.00 0.08 0.08 50 1017.5
20260905162006 70 135 6.1 9.6 0.00 0.08 0.08 47 1017.3
20260905161006 71 135 5.2 9.6 0.00 0.08 0.08 45 1017.3
20260905160013 71 135 4.3 11.3 0.00 0.08 0.08 46 1017.3
20260905154009 70 270 5.2 9.6 0.00 0.08 0.08 50 1017.2
20260905153007 71 135 7.0 10.4 0.00 0.08 0.08 51 1017.1
20260905152009 71 135 6.1 11.3 0.00 0.08 0.08 50 1017.1
20260905151008 70 270 5.2 11.3 0.00 0.08 0.08 52 1017.0
20260905150010 70 135 8.7 13.9 0.00 0.08 0.08 49 1017.0
20260905145010 71 135 8.7 13.9 0.00 0.08 0.08 48 1017.0
20260905144008 71 270 7.8 11.3 0.00 0.08 0.08 49 1016.9
20260905143009 72 135 7.8 11.3 0.00 0.08 0.08 49 1016.8
20260905141007 73 135 9.6 13.9 0.00 0.08 0.08 49 1016.6
20260905140013 71 270 8.7 13.9 0.00 0.08 0.08 49 1016.7
20260905135008 71 135 6.1 10.4 0.00 0.08 0.08 54 1017.0
20260905134007 73 0 9.6 15.6 0.00 0.08 0.08 49 1016.8
20260905133010 74 135 8.7 11.3 0.00 0.08 0.08 47 1016.7
20260905132008 74 270 10.4 16.5 0.00 0.08 0.08 49 1016.6
20260905131007 73 180 10.4 14.8 0.00 0.08 0.08 50 1016.8
20260905130014 69 270 8.7 12.2 0.00 0.08 0.08 57 1017.3
20260905125010 69 270 7.8 11.3 0.00 0.08 0.08 58 1017.2
20260905124008 72 135 6.1 10.4 0.00 0.08 0.08 55 1017.1
20260905123009 71 270 7.0 10.4 0.00 0.08 0.08 56 1017.2
20260905122008 71 135 8.7 12.2 0.00 0.08 0.08 54 1017.3
20260905121006 71 135 12.2 15.6 0.00 0.08 0.08 57 1017.4
20260905120012 72 135 9.6 13.9 0.00 0.08 0.08 53 1017.4
20260905115008 74 270 10.4 17.4 0.00 0.08 0.08 50 1017.3
20260905113010 70 135 10.4 14.8 0.00 0.08 0.08 60 1017.6
20260905112006 71 315 10.4 14.8 0.00 0.08 0.08 58 1017.6
20260905111006 71 270 8.7 11.3 0.00 0.08 0.08 57 1017.5
20260905110012 72 270 12.2 15.6 0.00 0.08 0.08 57 1017.4
20260905105009 70 135 8.7 13.0 0.00 0.08 0.08 62 1017.5
20260905104006 67 270 8.7 13.0 0.00 0.08 0.08 64 1017.7
20260905103013 69 270 8.7 12.2 0.00 0.08 0.08 64 1017.5
20260905102009 72 270 9.6 12.2 0.00 0.08 0.08 63 1017.3
20260905101008 69 270 9.6 15.6 0.00 0.08 0.08 69 1017.4
20260905100015 67 135 7.0 8.7 0.00 0.08 0.08 70 1017.6
20260905095006 68 270 9.6 13.0 0.00 0.08 0.08 68 1017.5
20260905094007 68 270 8.7 10.4 0.00 0.08 0.08 74 1017.5
20260905093009 65 225 7.8 13.0 0.00 0.08 0.08 75 1017.8
20260905092007 65 270 7.8 10.4 0.00 0.08 0.08 75 1017.8
20260905091008 67 270 10.4 17.4 0.00 0.08 0.08 74 1017.8
20260905090009 69 270 9.6 13.0 0.00 0.08 0.08 68 1017.4
20260905084009 67 270 9.6 13.9 0.00 0.08 0.08 75 1017.5
20260905083031 65 135 9.6 13.0 0.00 0.08 0.08 77 1017.5
20260905080017 66 270 8.7 13.0 0.00 0.08 0.08 79 1017.1
20260905075006 65 270 7.8 10.4 0.00 0.08 0.08 83 1017.1
20260905074007 64 270 7.8 10.4 0.00 0.08 0.08 85 1017.2
20260905073009 64 270 7.0 10.4 0.00 0.08 0.08 86 1017.0
20260905072008 62 270 7.0 9.6 0.00 0.08 0.08 86 1017.1
20260905071008 62 225 6.1 8.7 0.00 0.08 0.08 87 1017.2
20260905070010 61 270 6.1 9.6 0.00 0.08 0.08 87 1017.3
20260905065005 61 270 5.2 8.7 0.00 0.08 0.08 89 1017.2
20260905063008 59 270 4.3 8.7 0.00 0.08 0.08 93 1017.2
20260905062008 58 135 4.3 6.1 0.00 0.08 0.08 94 1017.4
20260905061009 57 135 4.3 6.1 0.00 0.08 0.08 95 1017.3
20260905060017 57 270 3.5 7.8 0.00 0.08 0.08 95 1017.2
20260905055008 57 135 3.5 6.1 0.00 0.08 0.08 94 1017.0
20260905054008 57 135 4.3 7.0 0.01 0.08 0.08 94 1016.9
20260905053011 57 270 3.5 4.3 0.01 0.08 0.08 95 1016.7
20260905052008 57 270 3.5 6.1 0.02 0.08 0.08 94 1016.5
20260905051005 57 270 3.5 7.0 0.03 0.08 0.08 94 1016.3
20260905050024 57 270 4.3 6.1 0.05 0.08 0.08 94 1016.1
20260905045009 57 270 3.5 5.2 0.05 0.08 0.08 93 1015.9
20260905044007 57 180 4.3 7.0 0.05 0.07 0.07 94 1016.1
20260905042007 58 270 5.2 8.7 0.05 0.06 0.06 93 1016.1
20260905041008 59 270 5.2 8.7 0.04 0.05 0.05 94 1016.2
20260905040011 59 0 3.5 6.1 0.02 0.03 0.03 94 1016.0
20260905035007 59 270 3.5 5.2 0.02 0.03 0.03 94 1016.0
20260905034008 60 45 3.5 5.2 0.02 0.02 0.02 93 1016.0
20260905033007 60 0 2.6 6.1 0.01 0.01 0.01 92 1015.8
20260905032009 60 0 0.9 2.6 0.01 0.01 0.01 92 1015.1
20260905031008 60 0 1.7 3.5 0.01 0.01 0.01 91 1014.8
20260905030017 60 0 0.9 2.6 0.01 0.01 0.01 93 1014.9
20260905025007 61 270 1.7 3.5 0.01 0.01 0.01 93 1015.0
20260905024006 61 225 2.6 3.5 0.00 0.00 0.00 92 1014.8
20260905023010 61 270 2.6 3.5 0.00 0.00 0.00 90 1014.8
20260905022005 62 270 2.6 3.5 0.00 0.00 0.00 89 1014.4
20260905021007 62 0 3.5 6.1 0.00 0.00 0.00 87 1014.6
20260905020021 63 270 3.5 5.2 0.00 0.00 0.00 84 1014.7
20260905015008 63 0 1.7 3.5 0.00 0.00 0.00 82 1014.1
20260905013011 63 135 3.5 5.2 0.00 0.00 0.00 80 1014.1
20260905012005 64 0 3.5 4.3 0.00 0.00 0.00 80 1014.2